User: anonymous   Login
Location: Unspecified
(0.0000°N, 0.0000°E)
Time: 04:23:14
(UTC+00:00)
Language:

SARAL - Orbit

View from above orbital plane
View from above orbital plane
View from above satellite
View from above satellite

Ground track
Ground track

The orbit data is extracted from the following two-line orbital elements,

1 39086U 13009A   19083.15693301 -.00000020  00000-0  86255-5 0  9992
2 39086  98.5413 270.6844 0001956 119.1960 240.9420 14.32033928317419
Epoch (UTC): 24 March 2019 03:45:59
Eccentricity: 0.0001956
inclination: 98.5413°
perigee height: 783 km
apogee height: 786 km
right ascension of ascending node: 270.6844°
argument of perigee: 119.1960°
revolutions per day: 14.32033928
mean anomaly at epoch: 240.9420°
orbit number at epoch: 31741

The dashed part of the orbit path shows where the satellite is in the earth's shadow,  

DLR